Zurück zum Katalog

CZ-2C R/B

AktivPO
NORAD 43610·ROCKET BODY·🇨🇳 China

Gestartet Sep 7, 2018 von Taiyuan Satellite Launch Center

Loading…

Nächste Überflüge (nächste 24 Stunden)

TLE

AktuellSource: Space-Track

Epoche: Sep 14, 2026, 19:41 UTC

1 43610U 18068B   26257.82058912  .00000162  00000-0  45995-4 0  9999
2 43610  98.7093 107.1931 0087607  75.7404 285.3503 14.56657740425944

Verfolge CZ-2C R/B in Echtzeit mit AllMySat

Download on the App Store